Regional Weather Roundup
Issued by NWS Goodland, KS

Home | Current Version | Previous Version | Graphics & Text | Print | Product List | Glossary On
Versions: 1 2 3 4 5 6 7 8 9 10 11 12 13 14 15 16 17 18 19 20 21 22 23 24 25 26 27 28 29 30 31 32 33 34 35 36 37 38 39 40 41 42 43 44 45 46 47 48 49 50
000
ASUS43 KGLD 191208
RWRGLD

GOODLAND FORECAST AREA HOURLY WEATHER ROUNDUP
NATIONAL WEATHER SERVICE GOODLAND KS
600 AM MDT SAT APR 19 2014

...OFFICIAL OBSERVATIONS...

CITY           SKY/WX    TMP DP  RH WIND       PRES   REMARKS
GOODLAND KS    CLOUDY    49  43  80 S13       29.88R
HILL CITY KS   CLOUDY    56  46  69 S16G26    29.91S
IMPERIAL NEB   CLOUDY    47  41  80 SE6       29.87R
MCCOOK NEB     CLOUDY    51  45  79 S8        29.89R
AKRON CO       CLOUDY    52  36  54 NW15      29.93R
BURLINGTON CO  CLOUDY    47  38  71 W13       29.90R
LIMON CO       CLOUDY    48  33  56 N9        29.97R
$$

...UNOFFICIAL OBSERVATIONS...

CITY           SKY/WX    TMP DP  RH WIND       PRES   REMARKS
COLBY KS       CLEAR     52  48  87 S10       29.88R
LENORA KS        N/A     54  32  43 S22         N/A
LEOTI KS         N/A     54  32  43 SW10        N/A
NORTON KS      CLEAR     52  45  76 S13       29.90S
OBERLIN KS     FAIR      52  45  76 SW10      29.90R
SHARON SPRINGS   N/A     52  45  77 S12G20      N/A
ST FRANCIS KS  CLOUDY    46  41  81 SW9       29.86S
WAKEENEY KS      N/A     57  44  63 MISG        N/A
KIT CARSON CO    N/A     45  38  78 MISG        N/A
WRAY CO        FAIR      45  41  87 W8        29.87R
$$



USA.gov is the U.S. government's official web portal to all federal, state and local government web resources and services.